TimeCST,TemperatureF,Dew PointF,Humidity,Sea Level PressureIn,VisibilityMPH,Wind Direction,Wind SpeedMPH,Gust SpeedMPH,PrecipitationIn,Events,Conditions,WindDirDegrees,DateUTC
12:15 AM,29.3,11.1,47,30.02,10.0,West,10.4,-,N/A,,Clear,260,2012-11-29 06:15:00
12:35 AM,29.3,10.4,45,30.02,10.0,West,10.4,-,N/A,,Clear,260,2012-11-29 06:35:00
12:55 AM,30.0,10.2,44,30.02,10.0,WSW,8.1,-,N/A,,Clear,250,2012-11-29 06:55:00
1:15 AM,28.0,9.9,47,30.01,10.0,West,8.1,-,N/A,,Clear,260,2012-11-29 07:15:00
1:35 AM,27.9,9.3,46,30.00,10.0,WSW,8.1,-,N/A,,Clear,250,2012-11-29 07:35:00
1:55 AM,26.2,10.0,50,29.99,10.0,WSW,8.1,-,N/A,,Clear,240,2012-11-29 07:55:00
2:15 AM,25.2,9.5,52,29.98,10.0,West,8.1,-,N/A,,Clear,260,2012-11-29 08:15:00
2:35 AM,26.4,9.5,49,29.98,10.0,SW,8.1,-,N/A,,Clear,230,2012-11-29 08:35:00
2:55 AM,26.1,9.5,50,29.98,10.0,West,8.1,-,N/A,,Clear,270,2012-11-29 08:55:00
3:15 AM,29.7,8.4,41,29.99,10.0,WNW,3.5,-,N/A,,Clear,290,2012-11-29 09:15:00
3:35 AM,27.5,8.4,45,29.98,10.0,West,8.1,-,N/A,,Clear,270,2012-11-29 09:35:00
3:55 AM,26.8,9.3,48,29.98,10.0,West,5.8,-,N/A,,Clear,280,2012-11-29 09:55:00
4:15 AM,26.6,9.5,49,29.98,10.0,West,8.1,-,N/A,,Clear,270,2012-11-29 10:15:00
4:35 AM,26.6,9.5,49,29.97,10.0,WSW,6.9,-,N/A,,Clear,240,2012-11-29 10:35:00
4:55 AM,26.4,10.8,52,29.97,10.0,WSW,6.9,-,N/A,,Clear,240,2012-11-29 10:55:00
5:15 AM,28.9,10.6,46,29.96,10.0,WSW,9.2,-,N/A,,Clear,250,2012-11-29 11:15:00
5:35 AM,31.3,10.0,41,29.96,10.0,WSW,8.1,-,N/A,,Clear,240,2012-11-29 11:35:00
5:55 AM,31.8,9.3,39,29.96,10.0,WSW,8.1,-,N/A,,Clear,250,2012-11-29 11:55:00
6:15 AM,32.5,10.0,39,29.96,10.0,WNW,5.8,-,N/A,,Clear,290,2012-11-29 12:15:00
6:35 AM,31.1,10.8,43,29.96,10.0,WSW,9.2,-,N/A,,Clear,250,2012-11-29 12:35:00
6:55 AM,33.6,9.7,37,29.97,10.0,West,6.9,-,N/A,,Clear,280,2012-11-29 12:55:00
7:15 AM,32.9,10.8,40,29.98,10.0,West,8.1,-,N/A,,Scattered Clouds,260,2012-11-29 13:15:00
7:35 AM,32.2,11.1,42,29.99,10.0,WNW,8.1,-,N/A,,Scattered Clouds,300,2012-11-29 13:35:00
7:55 AM,30.4,11.3,45,29.98,10.0,West,5.8,-,N/A,,Clear,260,2012-11-29 13:55:00
8:15 AM,30.0,11.3,46,29.98,10.0,WSW,8.1,-,N/A,,Clear,250,2012-11-29 14:15:00
8:35 AM,31.6,12.0,44,29.99,10.0,WSW,9.2,-,N/A,,Clear,250,2012-11-29 14:35:00
8:55 AM,35.8,10.8,36,29.99,10.0,WSW,11.5,-,N/A,,Clear,250,2012-11-29 14:55:00
9:15 AM,40.5,12.0,31,30.00,10.0,SW,6.9,-,N/A,,Clear,230,2012-11-29 15:15:00
9:35 AM,43.7,14.0,30,30.00,10.0,West,4.6,-,N/A,,Clear,260,2012-11-29 15:35:00
9:55 AM,50.4,19.8,30,30.00,10.0,West,10.4,-,N/A,,Clear,280,2012-11-29 15:55:00
10:15 AM,56.5,19.8,24,30.00,10.0,WSW,12.7,17.3,N/A,,Clear,250,2012-11-29 16:15:00
10:35 AM,57.6,21.9,25,30.00,10.0,West,18.4,28.8,N/A,,Clear,270,2012-11-29 16:35:00
10:55 AM,57.2,22.1,26,30.01,10.0,West,19.6,25.3,N/A,,Clear,280,2012-11-29 16:55:00
11:15 AM,57.2,22.6,26,30.00,10.0,West,17.3,-,N/A,,Clear,280,2012-11-29 17:15:00
11:35 AM,60.8,22.5,23,30.00,10.0,West,20.7,27.6,N/A,,Clear,280,2012-11-29 17:35:00
11:55 AM,61.0,22.5,23,29.99,10.0,West,27.6,36.8,N/A,,Clear,260,2012-11-29 17:55:00
12:15 PM,61.2,22.1,22,29.98,10.0,West,21.9,28.8,N/A,,Clear,260,2012-11-29 18:15:00
12:35 PM,61.7,21.6,21,29.96,10.0,West,27.6,34.5,N/A,,Clear,270,2012-11-29 18:35:00
12:55 PM,61.9,21.9,22,29.95,10.0,West,26.5,35.7,N/A,,Clear,270,2012-11-29 18:55:00
1:15 PM,62.2,21.6,21,29.94,10.0,West,27.6,34.5,N/A,,Clear,270,2012-11-29 19:15:00
1:35 PM,63.5,21.9,20,29.94,10.0,West,21.9,31.1,N/A,,Clear,260,2012-11-29 19:35:00
1:55 PM,63.9,20.5,19,29.93,10.0,West,23.0,29.9,N/A,,Clear,260,2012-11-29 19:55:00
2:15 PM,64.4,20.1,18,29.93,10.0,West,24.2,29.9,N/A,,Clear,270,2012-11-29 20:15:00
2:35 PM,64.4,19.4,18,29.93,10.0,West,21.9,28.8,N/A,,Clear,270,2012-11-29 20:35:00
2:55 PM,65.1,19.4,17,29.92,10.0,West,23.0,28.8,N/A,,Clear,260,2012-11-29 20:55:00
3:15 PM,65.1,17.1,16,29.93,10.0,West,20.7,32.2,N/A,,Clear,270,2012-11-29 21:15:00
3:35 PM,64.4,17.4,16,29.94,10.0,West,12.7,25.3,N/A,,Clear,280,2012-11-29 21:35:00
3:55 PM,63.9,16.2,16,29.94,10.0,NW,11.5,18.4,N/A,,Clear,310,2012-11-29 21:55:00
4:15 PM,62.2,16.5,17,29.94,10.0,NW,13.8,20.7,N/A,,Clear,310,2012-11-29 22:15:00
4:35 PM,61.5,16.7,18,29.95,10.0,NW,12.7,-,N/A,,Clear,310,2012-11-29 22:35:00
4:55 PM,58.6,18.3,21,29.97,10.0,NNW,11.5,-,N/A,,Clear,330,2012-11-29 22:55:00
5:15 PM,55.6,17.8,23,29.97,10.0,NNW,10.4,-,N/A,,Clear,330,2012-11-29 23:15:00
5:35 PM,53.6,17.4,24,29.98,10.0,NNW,8.1,-,N/A,,Clear,330,2012-11-29 23:35:00
5:55 PM,50.5,17.6,27,29.99,10.0,NNW,8.1,-,N/A,,Clear,340,2012-11-29 23:55:00
6:15 PM,51.4,17.6,26,30.00,10.0,NW,12.7,19.6,N/A,,Clear,320,2012-11-30 00:15:00
6:35 PM,50.5,18.1,28,30.00,10.0,WNW,13.8,19.6,N/A,,Clear,300,2012-11-30 00:35:00
6:55 PM,53.2,18.3,25,30.00,10.0,NW,16.1,21.9,N/A,,Clear,320,2012-11-30 00:55:00
7:15 PM,51.1,18.5,28,30.02,10.0,NNW,6.9,-,N/A,,Clear,330,2012-11-30 01:15:00
7:35 PM,45.1,18.0,34,30.02,10.0,WNW,8.1,-,N/A,,Clear,300,2012-11-30 01:35:00
7:55 PM,44.4,18.1,35,30.02,10.0,Calm,Calm,-,N/A,,Clear,0,2012-11-30 01:55:00
8:15 PM,45.5,18.7,34,30.03,10.0,Calm,Calm,-,N/A,,Clear,0,2012-11-30 02:15:00
8:35 PM,38.3,17.6,43,30.02,10.0,WSW,3.5,-,N/A,,Clear,250,2012-11-30 02:35:00
8:55 PM,36.3,17.1,46,30.03,10.0,Calm,Calm,-,N/A,,Clear,0,2012-11-30 02:55:00
9:15 PM,33.8,17.6,52,30.02,10.0,NE,4.6,-,N/A,,Clear,50,2012-11-30 03:15:00
9:35 PM,37.2,19.8,49,30.03,10.0,Calm,Calm,-,N/A,,Clear,0,2012-11-30 03:35:00
9:55 PM,36.1,18.1,48,30.03,10.0,West,4.6,-,N/A,,Clear,280,2012-11-30 03:55:00
10:15 PM,32.2,18.5,57,30.03,10.0,Calm,Calm,-,N/A,,Clear,0,2012-11-30 04:15:00
10:35 PM,32.7,19.0,57,30.02,10.0,WNW,5.8,-,N/A,,Clear,290,2012-11-30 04:35:00
10:55 PM,33.3,18.5,55,30.03,10.0,West,5.8,-,N/A,,Clear,270,2012-11-30 04:55:00
11:15 PM,31.1,18.1,59,30.04,10.0,WSW,9.2,-,N/A,,Clear,250,2012-11-30 05:15:00
11:35 PM,31.8,18.5,58,30.03,10.0,West,8.1,-,N/A,,Clear,270,2012-11-30 05:35:00
11:55 PM,31.1,18.9,61,30.04,10.0,WSW,8.1,-,N/A,,Clear,240,2012-11-30 05:55:00